Regional Weather Roundup
Issued by NWS

Home | Current Version | Previous Version | Graphics & Text | Print | Product List | Glossary On
Versions: 1 2 3 4 5 6 7 8 9 10 11 12 13 14 15 16 17 18 19 20 21 22 23 24 25 26 27 28 29 30 31 32 33 34 35 36 37 38 39 40 41 42 43 44 45 46 47 48 49 50
000
ASUS45 KCYS 210010
RWRWY

WYOMING REGIONAL WEATHER ROUNDUP
NATIONAL WEATHER SERVICE CHEYENNE WY
600 PM MDT WED SEP 20 2017

NOTE:  "FAIR" INDICATES FEW OR NO CLOUDS BELOW 12,000 FEET
WITH NO SIGNIFICANT WEATHER AND/OR OBSTRUCTIONS TO VISIBILITY.

WYZ001-210100-
YELLOWSTONE NATIONAL PARK

CITY           SKY/WX    TMP DP  RH WIND       PRES   REMARKS
LK YELLOWSTONE   N/A     39  36  89 VRB6      29.81S WCI  35
6HR MIN TEMP:  34; 6HR MAX TEMP:  41; 6HR PCP:  0.02;

W YELLOWSTONE  NOT AVBL

$$
WYZ002>013-054>058-071-098>099-210100-
NORTHERN WYOMING

CITY           SKY/WX    TMP DP  RH WIND       PRES   REMARKS
JACKSON        PTSUNNY   52  30  43 S13       29.80S
CODY           FAIR      59  29  31 SW12      29.71
GREYBULL       FAIR      69  26  20 S7        29.67S
6HR MIN TEMP:  58; 6HR MAX TEMP:  70;

WORLAND        FAIR      67  29  24 SW12      29.70S
6HR MIN TEMP:  61; 6HR MAX TEMP:  69;

SHERIDAN       FAIR      67  25  20 S12G20    29.68S
6HR MIN TEMP:  63; 6HR MAX TEMP:  71; 6HR PCP: TRACE;

BUFFALO        FAIR      63  20  19 S12       29.75F
6HR MIN TEMP:  57; 6HR MAX TEMP:  66;

GILLETTE       FAIR      66  24  20 SW15G23   29.75R
6HR MIN TEMP:  59; 6HR MAX TEMP:  67;

HULETT         FAIR      63  27  25 SW8       29.77S
NEWCASTLE      FAIR      68  21  17 W10       29.79S

$$
WYZ014>020-022>026-101>103-210100-
CENTRAL WYOMING

CITY           SKY/WX    TMP DP  RH WIND       PRES   REMARKS
BIG PINEY      FAIR      55  28  35 W16G26    29.87F
6HR MIN TEMP:  48; 6HR MAX TEMP:  58;

PINEDALE       CLOUDY    50  27  40 SW8       29.89S
DUBOIS         CLOUDY    46  27  46 W14G22    29.83S
LANDER           N/A    N/A N/A N/A MISG      29.76F
RIVERTON       FAIR      61  24  24 SW8       29.78S
6HR MIN TEMP:  57; 6HR MAX TEMP:  63;

CASPER         FAIR      63  28  26 W12       29.80F
6HR MIN TEMP:  59; 6HR MAX TEMP:  67;

DOUGLAS        FAIR      70  32  24 W14       29.81S
6HR MIN TEMP:  63; 6HR MAX TEMP:  72;


$$
WYZ021-027>030-104>119-210100-
SOUTHERN WYOMING

CITY           SKY/WX    TMP DP  RH WIND       PRES   REMARKS
EVANSTON       FAIR      63  32  31 SW23G36   29.83F
6HR MIN TEMP:  54; 6HR MAX TEMP:  64;

KEMMERER         N/A     54  30  40 W14       29.87S
FORT BRIDGER   FAIR      65  29  26 W22G33    29.86F
ROCK SPRINGS   FAIR      59  29  31 W9        29.86S
6HR MIN TEMP:  52; 6HR MAX TEMP:  61;

DIXON          FAIR      69  32  25 SW17G24   29.89S
RAWLINS        FAIR      64  32  30 SW24G32   29.87S
6HR MIN TEMP:  52; 6HR MAX TEMP:  64;

SARATOGA       FAIR      66  32  28 SW14G20   29.90S
LARAMIE        FAIR      64  31  28 S21       29.91R
6HR MIN TEMP:  58; 6HR MAX TEMP:  70;

CHEYENNE       FAIR      69  27  20 SE16G24   29.89S
6HR MIN TEMP:  58; 6HR MAX TEMP:  70;

TORRINGTON     FAIR      74  33  22 SE7       29.78F
6HR MIN TEMP:  67; 6HR MAX TEMP:  76;

PINE BLUFFS    FAIR      72  27  18 S14G22    29.86S

$$



USA.gov is the U.S. government's official web portal to all federal, state and local government web resources and services.